Weather History for KBUF - December, 2012

Change the Weather History Date:

Sunday, December 30, 2012

  Actual Average Record
Temperature  
Mean Temperature 26 °F 26 °F  
Max Temperature 30 °F 33 °F 58 °F (1884)
Min Temperature 21 °F 20 °F -9 °F (1880)
Degree Days  
Heating Degree Days 39 39  
Month to date heating degree days 848 1044  
Since 1 July heating degree days 2127 2377  
Cooling Degree Days 0 0  
Month to date cooling degree days 0 0  
Year to date cooling degree days 875 544  
Moisture  
Dew Point 17 °F    
Average Humidity 69    
Maximum Humidity 84    
Minimum Humidity 53    
Precipitation  
Precipitation T in 0.13 in 1.52 in (1990)
Month to date precipitation 3.64 3.77  
Year to date precipitation 32.80 40.36  
Snow  
Snow T in 1.10 in 17.80 in (1961)
Month to date snowfall 19.6 26.4  
Since 1 July snowfall 22.0 35.2  
Snow Depth 10.00 in    
Sea Level Pressure  
Sea Level Pressure 30.14 in    
Wind  
Wind Speed 11 mph (West)    
Max Wind Speed 28 mph    
Max Gust Speed 39 mph    
Visibility 10 miles    
Events Snow    
T = Trace of Precipitation, MM = Missing Value Source: NWS Daily Summary

Daily Weather History Graph

Daily Weather History Graph

Search for Another Location

Airport or City:

Trip Planner

Search our weather history database for the weather conditions in past years. The results will help you decide how hot, cold, wet, or windy it might be!

Date:

Astronomy

Dec. 30, 2012 Rise Set
Actual Time 7:45 AM EST 4:49 PM EST
Civil Twilight 7:13 AM EST 5:21 PM EST
Nautical Twilight 6:37 AM EST 5:57 PM EST
Astronomical Twilight 6:03 AM EST 6:32 PM EST
Moon 7:23 PM EST (12/30) 8:50 AM EST (12/30)
Length of Visible Light 10h 08m
Length of Day
9h 03m
Waning Gibbous, 95% of the Moon is Illuminated
Dec 30
Waning Gibbous
Jan 4
Last Quarter
Jan 11
New
Jan 18
First Quarter
Jan 26
Full

Hourly Weather History & Observations

Time (EST) Temp. Windchill Dew Point Humidity Pressure Visibility Wind Dir Wind Speed Gust Speed Precip Events Conditions
12:54 AM 25.0 °F 13.6 °F 19.9 °F 81% 29.89 in 10.0 mi West 12.7 mph - N/A   Mostly Cloudy
1:54 AM 23.0 °F 11.7 °F 18.0 °F 81% 29.92 in 10.0 mi West 11.5 mph - N/A   Scattered Clouds
2:54 AM 23.0 °F 11.7 °F 18.0 °F 81% 29.95 in 10.0 mi West 11.5 mph - N/A   Mostly Cloudy
3:54 AM 21.9 °F 13.4 °F 17.1 °F 82% 29.98 in 10.0 mi West 6.9 mph - N/A   Mostly Cloudy
4:21 AM 23.0 °F 12.4 °F 15.8 °F 74% 29.96 in 10.0 mi WNW 10.4 mph - N/A   Overcast
4:54 AM 21.9 °F 11.0 °F 16.0 °F 78% 30.01 in 10.0 mi WNW 10.4 mph - N/A   Overcast
5:54 AM 21.9 °F 12.5 °F 17.1 °F 82% 30.04 in 7.0 mi West 8.1 mph - 0.00 in Snow Light Snow
6:54 AM 24.1 °F 13.1 °F 14.0 °F 65% 30.07 in 8.0 mi WNW 11.5 mph - 0.00 in Snow Light Snow
7:54 AM 21.0 °F 9.3 °F 16.0 °F 81% 30.11 in 7.0 mi WSW 11.5 mph - 0.00 in Snow Light Snow
8:54 AM 23.0 °F 11.7 °F 17.1 °F 78% 30.14 in 9.0 mi West 11.5 mph - 0.00 in Snow Light Snow
9:10 AM 23.0 °F 13.1 °F 17.6 °F 80% 30.12 in 9.0 mi West 9.2 mph - 0.00 in   Mostly Cloudy
9:54 AM 25.0 °F 14.8 °F 18.0 °F 75% 30.18 in 10.0 mi West 10.4 mph - 0.00 in   Scattered Clouds
10:54 AM 26.1 °F 13.6 °F 14.0 °F 60% 30.21 in 10.0 mi WNW 16.1 mph - N/A   Scattered Clouds
11:54 AM 27.0 °F 14.3 °F 12.9 °F 56% 30.22 in 10.0 mi WNW 17.3 mph 25.3 mph N/A   Mostly Cloudy
12:54 PM 27.0 °F 18.7 °F 16.0 °F 63% 30.21 in 10.0 mi WNW 8.1 mph - N/A   Scattered Clouds
1:54 PM 27.0 °F 18.0 °F 14.0 °F 58% 30.22 in 10.0 mi WNW 9.2 mph - N/A   Mostly Cloudy
2:54 PM 28.0 °F 19.3 °F 14.0 °F 56% 30.23 in 10.0 mi West 9.2 mph - N/A   Mostly Cloudy
3:54 PM 28.0 °F 18.6 °F 15.1 °F 58% 30.25 in 10.0 mi West 10.4 mph - N/A   Mostly Cloudy
4:54 PM 28.0 °F 19.3 °F 15.1 °F 58% 30.26 in 10.0 mi West 9.2 mph - 0.00 in Snow Light Snow
5:54 PM 27.0 °F 20.5 °F 18.0 °F 69% 30.26 in 9.0 mi SW 5.8 mph - 0.00 in Snow Light Snow
6:54 PM 27.0 °F 21.6 °F 18.0 °F 69% 30.25 in 10.0 mi WSW 4.6 mph - 0.00 in   Scattered Clouds
7:54 PM 27.0 °F 19.5 °F 19.9 °F 75% 30.23 in 10.0 mi West 6.9 mph - N/A   Overcast
8:12 PM 28.4 °F 20.4 °F 19.4 °F 69% 30.19 in 10.0 mi West 8.1 mph - N/A   Overcast
8:54 PM 28.0 °F 19.3 °F 19.9 °F 72% 30.23 in 10.0 mi West 9.2 mph - 0.00 in Snow Light Snow
9:54 PM 28.9 °F 21.1 °F 21.0 °F 72% 30.22 in 10.0 mi West 8.1 mph - 0.00 in Snow Light Snow
10:54 PM 30.0 °F 17.9 °F 23.0 °F 75% 30.22 in 9.0 mi WSW 18.4 mph 33.4 mph 0.00 in Snow Light Snow
11:54 PM 28.0 °F 13.9 °F 23.0 °F 81% 30.20 in 9.0 mi WSW 23.0 mph 32.2 mph 0.00 in Snow Light Snow